St. Johnsbury, VT

3:45 AM EDT on August 18, 2017 (GMT -0400)
St. Johnsbury

Weather History for K1V4 - January, 2014

Change the Weather History Date:

Monday, January 20, 2014

  Actual Average Record
Temperature  
Mean Temperature 14 °F 16 °F  
Max Temperature 28 °F 27 °F 58 °F (1996)
Min Temperature 0 °F 6 °F -32 °F (1994)
Degree Days  
Heating Degree Days 51 49  
Month to date heating degree days 690 963  
Since 1 July heating degree days 3845 3916  
Cooling Degree Days 0 0  
Month to date cooling degree days 0  
Year to date cooling degree days 0  
Moisture  
Dew Point 9 °F    
Average Humidity 73    
Maximum Humidity 84    
Minimum Humidity 62    
Precipitation  
Precipitation 0.06 in 0.09 in 1.50 in (1996)
Month to date precipitation 1.87 1.61  
Year to date precipitation 1.87 1.61  
Sea Level Pressure  
Sea Level Pressure 29.62 in    
Wind  
Wind Speed - (North)    
Max Wind Speed -    
Max Gust Speed -    
T = Trace of Precipitation, MM = Missing Value Source: NWS Daily Summary

Daily Weather History Graph

Daily Weather History Graph

Search for Another Location

Airport or City:

Trip Planner

Search our weather history database for the weather conditions in past years. The results will help you decide how hot, cold, wet, or windy it might be!

Date:

Astronomy

Jan. 20, 2014 Rise Set
Actual Time 7:17 AM EST 4:40 PM EST
Civil Twilight 6:45 AM EST 5:12 PM EST
Nautical Twilight 6:10 AM EST 5:48 PM EST
Astronomical Twilight 5:35 AM EST 6:23 PM EST
Moon 9:25 PM EST (1/20) 9:04 AM EST (1/20)
Length of Visible Light 10h 27m
Length of Day
9h 23m
Waning Gibbous, 83% of the Moon is Illuminated
Jan 20
Waning Gibbous
Jan 24
Last Quarter
Jan 30
New
Feb 6
First Quarter
Feb 14
Full

Hourly Weather History & Observations

Time (EST) Temp. Dew Point Humidity Pressure Visibility Wind Dir Wind Speed Gust Speed Precip Events Conditions
12:54 AM 27.0 °F 19.0 °F 72% 29.42 in - North - - N/A   Unknown
1:54 AM 27.0 °F 19.9 °F 75% 29.44 in - North - - N/A   Unknown
2:54 AM 27.0 °F 21.0 °F 78% 29.44 in - North - - N/A   Unknown
3:54 AM 28.0 °F 21.0 °F 75% 29.44 in - North - - N/A   Unknown
4:54 AM 28.0 °F 21.0 °F 75% 29.44 in - North - - N/A   Unknown
5:54 AM 28.0 °F 21.0 °F 75% 29.45 in - North - - N/A   Unknown
6:54 AM 28.0 °F 23.0 °F 81% 29.47 in - North - - N/A   Unknown
7:54 AM 24.1 °F 19.9 °F 84% 29.49 in - North - - 0.02 in   Unknown
8:54 AM 21.0 °F 16.0 °F 81% 29.52 in - North - - 0.01 in   Unknown
9:54 AM 19.9 °F 15.1 °F 81% 29.54 in - North - - 0.02 in   Unknown
10:54 AM 19.0 °F 12.9 °F 77% 29.55 in - North - - N/A   Unknown
11:54 AM 19.9 °F 12.9 °F 74% 29.53 in - North - - N/A   Unknown
12:54 PM 19.9 °F 12.9 °F 74% 29.53 in - North - - N/A   Unknown
1:54 PM 19.9 °F 12.0 °F 71% 29.54 in - North - - N/A   Unknown
2:54 PM 16.0 °F 10.0 °F 77% 29.60 in - North - - N/A   Unknown
3:54 PM 14.0 °F 8.1 °F 77% 29.64 in - North - - 0.01 in   Unknown
4:54 PM 12.0 °F 3.9 °F 70% 29.71 in - North - - N/A   Unknown
5:54 PM 10.0 °F 1.0 °F 67% 29.76 in - North - - N/A   Unknown
6:54 PM 7.0 °F -2.9 °F 64% 29.81 in - North - - N/A   Unknown
7:54 PM 5.0 °F -6.0 °F 61% 29.86 in - North - - N/A   Unknown
8:54 PM 1.9 °F -9.0 °F 60% 29.89 in - North - - N/A   Unknown
9:54 PM 1.9 °F -9.0 °F 60% 29.92 in - North - - N/A   Unknown
10:54 PM -0.0 °F -9.0 °F 66% 29.95 in - North - - N/A   Unknown
11:54 PM -0.0 °F -9.9 °F 63% 29.99 in - North - - N/A   Unknown